(343240) = 2009 WB189

Discovered at Kitt Peak on 2009-11-24 by Spacewatch.

Orbit

Orbit type: Main Belt

Note: WebGL enabled browser required.

epoch2024-03-31.0
epoch JD2460400.5
perihelion date2022-05-31.10323
perihelion JD2459730.60323
argument of perihelion (°)307.04354
ascending node (°)56.97556
inclination (°)6.40611
eccentricity0.1987351
perihelion distance (AU)1.7473984
Tisserand w.r.t. Jupiter3.6
ΔV w.r.t. Earth (km/sec)8.3
semimajor axis (AU)2.1807999
mean anomaly (°)205.01612
mean daily motion (°/day)0.30604140
aphelion distance (AU)2.614
period (years)3.22
P-vector [x]0.99336214
P-vector [y]0.10222201
P-vector [z]-0.05274768
Q-vector [x]-0.06693509
Q-vector [y]0.88660825
Q-vector [z]0.45765217
absolute magnitude18.02
phase slope0.15
uncertainty0
referenceMPEC 2024-E190
observations used149
oppositions11
arc length (days)6288
first opposition used2006
last opposition used2024
residual rms (arc-secs)0.84
perturbers coarse indicatorM-v
perturbers precise indicator003Ek
first observation date used2006-12-26.0
last observation date used2024-03-14.0
computer nameMPCLINUX
JD of orbit computation2456219.643353
perihelion JD uncertainty (days)1.6180E-04
argument of perihelion uncertainty (°)9.9747E-05
ascending node uncertainty (°)6.5251E-05
inclination uncertainty (°)1.0772E-05
eccentricity uncertainty 2.5050E-07
perihelion distance uncertainty (AU)6.5144E-07
Minimum Orbit Intersection Distances (in AU)
for orbit epoch: 2460400.5, reference: E2024-G04
Mercury1.38228
Venus1.02176
Earth0.75495
Mars0.35044
Jupiter2.84504
Saturn6.76545
Uranus15.8544
Neptune27.8959

Observations

154 total observations over interval: 2006 12 26.27990 – 2024 03 14.484624
These data are available for download (format description).

